Location: Bucquoy
(50.1391°N, 2.7097°E)
Time: 03:44:10
(UTC+00:00)

Okean 1-7 - Pass Details

Date: 06 May 2021
Orbit: 591 x 617 km, 82.5° (Epoch: 22 June)

Event Time Altitude Azimuth Distance (km) Brightness Sun altitude
Exits shadow 00:29:22 74° 240° (WSW) 622 2.8 -22.6°
Maximum altitude 00:29:36 78° 280° (W) 613 2.9 -22.6°
Drops below altitude 10° 00:33:54 10° 8° (N) 1,941 6.7 -22.5°
Sets 00:36:08 0° 10° (N) 2,851 8.0 -22.4°
